カタログに戻る

CZ-4 DEB

運用中PO
NORAD 26175·DEBRIS·🇨🇳 China

打ち上げ Oct 14, 1999 から Taiyuan Satellite Launch Center

Loading…

次のパス (今後24時間)

TLE

最新Source: Space-Track

元期: Sep 13, 2026, 12:52 UTC

1 26175U 99057BM  26256.53658072  .00000264  00000-0  19735-3 0  9998
2 26175  98.7271 102.6485 0330500 241.5291 115.2205 13.79423523331235

AllMySatでCZ-4 DEBをリアルタイム追跡

Download on the App Store